GW6868 Weather Reports


Display with metric or nautical units.
time (UTC)temp
F
wind
direction
speed
MPH
gust
MPH
rain 1hr
in
rain 24hr
in
rain mn
in
humidity
%
barometer
mb
20260506001644 69 119 3.0 4.0 0.00 0.00 0.00 61 1013.0
20260506001142 69 180 1.0 2.0 0.00 0.00 0.00 61 1013.3
20260506000639 69 251 6.0 8.0 0.00 0.00 0.00 62 1013.3
20260506000136 70 202 2.0 3.0 0.00 0.00 0.00 60 1013.4
20260505235634 69 205 2.0 2.0 0.00 0.00 0.00 62 1013.4
20260505235131 70 129 2.0 2.0 0.00 0.00 0.00 60 1013.5
20260505234628 70 199 1.0 2.0 0.00 0.00 0.00 60 1013.4
20260505234125 70 250 3.0 4.0 0.00 0.00 0.00 60 1013.5
20260505233622 70 99 1.0 1.0 0.00 0.00 0.00 59 1013.5
20260505233120 70 190 2.0 2.0 0.00 0.00 0.00 60 1013.6
20260505232617 70 218 4.0 6.0 0.00 0.00 0.00 60 1013.4
20260505232115 70 188 2.0 2.0 0.00 0.00 0.00 60 1013.7
20260505231611 71 207 2.0 3.0 0.00 0.00 0.00 59 1013.8
20260505231110 70 184 2.0 2.0 0.00 0.00 0.00 60 1013.6
20260505230608 71 299 2.0 3.0 0.00 0.00 0.00 60 1013.5
20260505225600 70 101 4.0 7.0 0.00 0.00 0.00 59 1013.6
20260505225056 69 119 0.0 0.0 0.00 0.00 0.00 60 1013.7
20260505224553 69 101 3.0 4.0 0.00 0.00 0.00 60 1013.5
20260505224051 70 161 3.0 6.0 0.00 0.00 0.00 60 1013.8
20260505223548 70 113 1.0 2.0 0.00 0.00 0.00 60 1013.8
20260505223044 69 202 3.0 6.0 0.00 0.00 0.00 60 1013.9
20260505222540 70 266 5.0 6.0 0.00 0.00 0.00 60 1013.7
20260505222037 69 203 3.0 4.0 0.00 0.00 0.00 62 1014.0
20260505221534 69 192 4.0 7.0 0.00 0.00 0.00 60 1013.6
20260505221030 70 146 2.0 4.0 0.00 0.00 0.00 60 1013.8
20260505220527 70 59 2.0 3.0 0.00 0.00 0.00 60 1013.8
20260505220025 70 79 4.0 6.0 0.00 0.00 0.00 60 1013.9
20260505215523 69 204 2.0 3.0 0.00 0.00 0.00 60 1014.0
20260505215021 69 142 3.0 4.0 0.00 0.00 0.00 61 1014.0
20260505214519 69 99 4.0 4.0 0.00 0.00 0.00 60 1014.2
20260505214015 69 248 6.0 9.0 0.00 0.00 0.00 60 1014.0
20260505213513 69 132 3.0 4.0 0.00 0.00 0.00 61 1014.2
20260505213009 68 154 2.0 3.0 0.00 0.00 0.00 61 1014.2
20260505212506 69 144 3.0 4.0 0.00 0.00 0.00 61 1014.2
20260505212003 69 137 2.0 3.0 0.00 0.00 0.00 61 1014.3
20260505211500 69 251 5.0 6.0 0.00 0.00 0.00 63 1014.4
20260505210956 69 104 4.0 6.0 0.00 0.00 0.00 60 1014.2
20260505210453 68 119 2.0 3.0 0.00 0.00 0.00 62 1014.4
20260505205950 70 166 3.0 4.0 0.00 0.00 0.00 61 1014.4
20260505205449 68 197 4.0 6.0 0.00 0.00 0.00 63 1014.5
20260505204945 68 259 5.0 6.0 0.00 0.00 0.00 61 1014.4
20260505204443 68 211 4.0 4.0 0.00 0.00 0.00 63 1014.5
20260505203940 68 106 4.0 4.0 0.00 0.00 0.00 62 1014.6
20260505203436 69 83 2.0 2.0 0.00 0.00 0.00 62 1014.6
20260505202933 68 194 2.0 2.0 0.00 0.00 0.00 62 1014.6
20260505202429 68 215 1.0 2.0 0.00 0.00 0.00 63 1014.9
20260505201926 67 115 3.0 4.0 0.00 0.00 0.00 63 1014.8
20260505201422 67 311 2.0 2.0 0.00 0.00 0.00 64 1014.9
20260505200921 68 137 4.0 7.0 0.00 0.00 0.00 62 1014.9
20260505200418 68 111 1.0 2.0 0.00 0.00 0.00 63 1014.7
20260505195913 68 143 2.0 3.0 0.00 0.00 0.00 63 1014.9
20260505195411 67 131 2.0 3.0 0.00 0.00 0.00 63 1015.0
20260505194908 68 130 2.0 2.0 0.00 0.00 0.00 64 1015.0
20260505194406 66 139 0.0 1.0 0.00 0.00 0.00 65 1014.9
20260505193905 68 254 3.0 3.0 0.00 0.00 0.00 64 1014.9
20260505193403 67 101 2.0 3.0 0.00 0.00 0.00 64 1014.8
20260505192901 67 49 3.0 4.0 0.00 0.00 0.00 63 1015.0
20260505192359 66 142 2.0 2.0 0.00 0.00 0.00 65 1015.1
20260505191856 66 196 4.0 6.0 0.00 0.00 0.00 66 1015.2
20260505191355 64 218 2.0 3.0 0.00 0.00 0.00 68 1015.2
20260505190851 64 246 5.0 7.0 0.00 0.00 0.00 68 1015.1
20260505190347 64 237 5.0 9.0 0.00 0.00 0.00 68 1015.4
20260505185842 63 213 3.0 6.0 0.00 0.00 0.00 70 1015.3
20260505185339 64 211 4.0 4.0 0.00 0.00 0.00 69 1015.2
20260505184835 64 215 6.0 8.0 0.00 0.00 0.00 69 1015.3
20260505184332 64 309 2.0 4.0 0.00 0.00 0.00 70 1015.2
20260505183829 64 127 2.0 2.0 0.00 0.00 0.00 70 1015.4
20260505183326 63 163 6.0 10.0 0.00 0.00 0.00 71 1015.1
20260505182823 63 110 1.0 1.0 0.00 0.00 0.00 70 1015.4
20260505182320 63 143 2.0 3.0 0.00 0.00 0.00 71 1015.4
20260505181817 63 223 2.0 4.0 0.00 0.00 0.00 71 1015.4
20260505181314 62 169 1.0 2.0 0.00 0.00 0.00 74 1015.5
20260505180810 62 117 1.0 2.0 0.00 0.00 0.00 74 1015.2
20260505180307 62 276 3.0 4.0 0.00 0.00 0.00 73 1015.3
20260505175803 61 186 3.0 4.0 0.00 0.00 0.00 74 1015.4
20260505175300 62 186 2.0 3.0 0.00 0.00 0.00 74 1015.3
20260505174756 61 283 2.0 2.0 0.00 0.00 0.00 74 1015.5
20260505174254 61 116 2.0 3.0 0.00 0.00 0.00 74 1015.5
20260505173749 61 146 0.0 1.0 0.00 0.00 0.00 75 1015.5
20260505173246 60 333 4.0 4.0 0.00 0.00 0.00 76 1015.3
20260505172743 60 157 2.0 3.0 0.00 0.00 0.00 76 1015.5
20260505172240 60 231 2.0 2.0 0.00 0.00 0.00 77 1015.2
20260505171740 60 220 6.0 8.0 0.00 0.00 0.00 76 1015.3
20260505171237 60 158 1.0 1.0 0.00 0.00 0.00 77 1015.3
20260505170734 60 132 2.0 3.0 0.00 0.00 0.00 77 1015.3
20260505170231 60 132 4.0 6.0 0.00 0.00 0.00 77 1015.1
20260505165726 59 127 2.0 2.0 0.00 0.00 0.00 77 1015.3
20260505165222 59 111 1.0 2.0 0.00 0.00 0.00 78 1015.3
20260505164718 59 208 1.0 2.0 0.00 0.00 0.00 77 1015.2
20260505164215 59 235 5.0 8.0 0.00 0.00 0.00 77 1015.1
20260505163714 59 211 3.0 4.0 0.00 0.00 0.00 77 1015.2
20260505163212 59 32 1.0 2.0 0.00 0.00 0.00 79 1015.3
20260505162709 59 301 1.0 2.0 0.00 0.00 0.00 77 1015.2
20260505162206 59 96 1.0 2.0 0.00 0.00 0.00 78 1015.3
20260505161703 59 62 1.0 1.0 0.00 0.00 0.00 79 1015.1
20260505161200 58 257 1.0 1.0 0.00 0.00 0.00 79 1014.8
20260505160658 58 89 2.0 2.0 0.00 0.00 0.00 79 1015.1
20260505160155 58 175 1.0 2.0 0.00 0.00 0.00 80 1015.2
20260505153134 58 117 1.0 1.0 0.00 0.00 0.00 80 1015.2
20260505152631 58 100 1.0 1.0 0.00 0.00 0.00 80 1014.9
20260505152127 57 189 2.0 3.0 0.00 0.00 0.00 80 1015.0
20260505151622 57 46 1.0 1.0 0.00 0.00 0.00 80 1014.9
20260505151120 58 301 3.0 3.0 0.00 0.00 0.00 80 1014.7
20260505150616 57 109 1.0 1.0 0.00 0.00 0.00 80 1014.8
20260505150113 58 93 0.0 0.0 0.00 0.00 0.00 80 1014.8
20260505140541 57 78 1.0 1.0 0.00 0.00 0.00 82 1014.5
20260505124955 57 165 1.0 2.0 0.00 0.00 0.00 82 1013.8
20260505124452 57 106 1.0 1.0 0.00 0.00 0.00 81 1013.8
20260505123948 57 121 0.0 0.0 0.00 0.00 0.00 81 1014.0
20260505123444 57 105 3.0 4.0 0.00 0.00 0.00 81 1014.0
20260505122940 57 113 1.0 2.0 0.00 0.00 0.00 81 1014.1
20260505122438 57 99 0.0 1.0 0.00 0.00 0.00 81 1013.9
20260505121934 57 125 1.0 1.0 0.00 0.00 0.00 81 1013.7
20260505121432 57 150 1.0 1.0 0.00 0.00 0.00 81 1013.9
20260505120927 57 215 2.0 3.0 0.00 0.00 0.00 81 1013.9
20260505120424 57 213 6.0 9.0 0.00 0.00 0.00 81 1013.9
20260505115923 57 80 2.0 3.0 0.00 0.00 0.00 80 1013.8
20260505115420 57 105 0.0 0.0 0.00 0.00 0.00 80 1013.9
20260505114918 57 227 3.0 3.0 0.00 0.00 0.00 79 1013.8
20260505114413 57 117 0.0 1.0 0.00 0.00 0.00 79 1013.9
20260505113910 57 105 4.0 4.0 0.00 0.00 0.00 79 1013.7
20260505113407 58 97 1.0 1.0 0.00 0.00 0.00 79 1013.8
20260505112903 58 128 1.0 1.0 0.00 0.00 0.00 79 1013.8
20260505112401 58 117 2.0 2.0 0.00 0.00 0.00 79 1013.6
20260505111856 58 92 3.0 6.0 0.00 0.00 0.00 79 1013.7
20260505111351 58 137 1.0 2.0 0.00 0.00 0.00 79 1013.7
20260505110847 58 116 0.0 1.0 0.00 0.00 0.00 79 1013.6
20260505110345 58 133 2.0 2.0 0.00 0.00 0.00 79 1013.3
20260505101815 59 70 1.0 1.0 0.00 0.00 0.00 78 1012.9
20260505101310 59 213 1.0 2.0 0.00 0.00 0.00 77 1012.9
20260505100806 59 257 6.0 10.0 0.00 0.00 0.00 77 1012.8
20260505100303 59 105 1.0 2.0 0.00 0.00 0.00 77 1012.8
20260505095759 59 127 2.0 2.0 0.00 0.00 0.00 77 1012.7
20260505095257 60 116 1.0 1.0 0.00 0.00 0.00 77 1012.7
20260505094752 60 198 3.0 4.0 0.00 0.00 0.00 76 1012.7
20260505094249 60 0 3.0 3.0 0.00 0.00 0.00 76 1012.7
20260505093745 60 158 2.0 4.0 0.00 0.00 0.00 76 1012.8
20260505093243 60 248 4.0 6.0 0.00 0.00 0.00 76 1012.8
20260505092739 60 119 2.0 2.0 0.00 0.00 0.00 76 1012.6
20260505092238 60 194 2.0 3.0 0.00 0.00 0.00 75 1012.6
20260505091735 61 125 1.0 1.0 0.00 0.00 0.00 75 1012.6
20260505091233 61 81 1.0 1.0 0.00 0.00 0.00 75 1012.4
20260505090730 61 200 1.0 2.0 0.00 0.00 0.00 75 1012.6
20260505090229 61 175 1.0 4.0 0.00 0.00 0.00 74 1012.2
20260505085725 61 137 1.0 1.0 0.00 0.00 0.00 74 1012.5
20260505085224 61 220 2.0 3.0 0.00 0.00 0.00 74 1012.3
20260505084721 62 233 0.0 1.0 0.00 0.00 0.00 74 1012.2
20260505084220 62 292 8.0 10.0 0.00 0.00 0.00 74 1012.0
20260505083716 62 79 0.0 0.0 0.00 0.00 0.00 74 1012.0
20260505083213 62 260 4.0 4.0 0.00 0.00 0.00 73 1011.9
20260505082709 62 118 0.0 0.0 0.00 0.00 0.00 73 1012.0
20260505082206 62 218 4.0 6.0 0.00 0.00 0.00 73 1011.8
20260505081702 62 185 5.0 7.0 0.00 0.00 0.00 73 1011.7
20260505081159 63 257 6.0 8.0 0.00 0.00 0.00 73 1011.8
20260505080656 63 206 3.0 4.0 0.00 0.00 0.00 72 1011.7
20260505080152 63 267 6.0 8.0 0.00 0.00 0.00 73 1011.6
20260505075648 63 215 6.0 7.0 0.00 0.00 0.00 73 1011.6
20260505075145 63 113 0.0 0.0 0.00 0.00 0.00 73 1011.9
20260505074642 63 63 2.0 3.0 0.00 0.00 0.00 74 1011.6
20260505074139 64 116 1.0 1.0 0.00 0.00 0.00 74 1011.6
20260505073637 64 269 2.0 2.0 0.00 0.00 0.00 74 1011.5
20260505073135 64 113 0.0 0.0 0.00 0.00 0.00 75 1011.5
20260505072630 64 125 1.0 1.0 0.00 0.00 0.00 74 1011.4
20260505072127 64 357 3.0 4.0 0.00 0.00 0.00 76 1011.5
20260505071623 64 92 0.0 0.0 0.00 0.00 0.00 75 1011.4
20260505071121 64 144 3.0 4.0 0.00 0.00 0.00 75 1011.2
20260505070618 65 209 1.0 2.0 0.00 0.00 0.00 74 1011.4
20260505070114 65 266 3.0 4.0 0.00 0.00 0.00 74 1011.4
20260505065610 65 149 2.0 2.0 0.00 0.00 0.00 74 1011.2
20260505065107 65 233 1.0 1.0 0.00 0.00 0.00 74 1011.0
20260505064603 65 152 4.0 7.0 0.00 0.00 0.00 74 1011.0
20260505064102 65 187 0.0 1.0 0.00 0.00 0.00 74 1010.9
20260505063559 65 211 3.0 4.0 0.00 0.00 0.00 74 1010.9
20260505063055 65 296 3.0 3.0 0.00 0.00 0.00 74 1011.0
20260505062551 65 104 2.0 2.0 0.00 0.00 0.00 74 1011.0
20260505062049 65 191 2.0 2.0 0.00 0.00 0.00 75 1011.2
20260505061546 66 85 1.0 1.0 0.00 0.00 0.00 74 1011.2
20260505061044 66 125 0.0 1.0 0.00 0.00 0.00 73 1011.0
20260505060541 66 212 2.0 2.0 0.00 0.00 0.00 73 1011.1
20260505060037 66 134 6.0 7.0 0.00 0.00 0.00 73 1010.9
20260505055532 66 124 1.0 2.0 0.00 0.00 0.00 72 1010.8
20260505055030 66 304 2.0 3.0 0.00 0.00 0.00 72 1011.0
20260505054527 66 220 3.0 3.0 0.00 0.00 0.00 72 1010.9
20260505054025 66 210 3.0 6.0 0.00 0.00 0.00 73 1011.0
20260505053522 66 165 2.0 2.0 0.00 0.00 0.00 73 1010.9
20260505053019 66 84 1.0 1.0 0.00 0.00 0.00 73 1011.0
20260505052516 67 284 4.0 7.0 0.00 0.00 0.00 72 1011.1
20260505052013 67 199 3.0 4.0 0.00 0.00 0.00 71 1010.8
20260505051510 67 146 1.0 1.0 0.00 0.00 0.00 72 1011.0
20260505051008 67 291 4.0 6.0 0.00 0.00 0.00 72 1010.7
20260505050506 66 74 2.0 3.0 0.00 0.00 0.00 72 1010.7
20260505041433 68 247 4.0 4.0 0.00 0.00 0.00 69 1010.1
20260505040931 68 127 2.0 3.0 0.00 0.00 0.00 69 1009.9
20260505040428 68 207 2.0 3.0 0.00 0.00 0.00 68 1010.1
20260505035925 68 201 2.0 2.0 0.00 0.00 0.00 67 1010.1
20260505035421 68 223 2.0 2.0 0.00 0.00 0.00 67 1009.9
20260505034918 69 125 1.0 2.0 0.00 0.00 0.00 66 1009.8
20260505034414 68 167 6.0 9.0 0.00 0.00 0.00 67 1009.9
20260505033912 68 271 2.0 2.0 0.00 0.00 0.00 67 1009.8
20260505033408 68 174 6.0 8.0 0.00 0.00 0.00 67 1009.8
20260505032907 69 146 2.0 3.0 0.00 0.00 0.00 66 1009.6
20260505032403 69 81 5.0 7.0 0.00 0.00 0.00 66 1009.5
20260505031900 69 227 8.0 11.0 0.00 0.00 0.00 66 1009.5
20260505031357 69 114 2.0 3.0 0.00 0.00 0.00 66 1009.5
20260505030854 69 176 3.0 3.0 0.00 0.00 0.00 66 1009.3
20260505030349 69 180 2.0 3.0 0.00 0.00 0.00 66 1009.2
20260505025845 69 95 2.0 3.0 0.00 0.00 0.00 65 1009.1
20260505025343 69 153 3.0 4.0 0.00 0.00 0.00 65 1009.2
20260505024842 69 114 1.0 2.0 0.00 0.00 0.00 65 1009.0
20260505024339 69 243 5.0 7.0 0.00 0.00 0.00 64 1009.0
20260505023836 69 76 2.0 3.0 0.00 0.00 0.00 64 1008.7
20260505023333 70 152 2.0 2.0 0.00 0.00 0.00 63 1008.8
20260505022830 70 154 5.0 9.0 0.00 0.00 0.00 63 1008.9
20260505022327 70 184 5.0 7.0 0.00 0.00 0.00 62 1008.8
20260505021824 70 208 4.0 6.0 0.00 0.00 0.00 62 1008.8
20260505021321 70 227 4.0 4.0 0.00 0.00 0.00 62 1009.1
20260505020816 71 243 3.0 8.0 0.00 0.00 0.00 61 1008.8
20260505020312 71 115 2.0 2.0 0.00 0.00 0.00 61 1008.8
20260505015809 72 51 5.0 7.0 0.00 0.00 0.00 60 1008.9
20260505015306 71 235 6.0 10.0 0.00 0.00 0.00 59 1008.7
20260505014804 72 220 2.0 2.0 0.00 0.00 0.00 59 1008.9
20260505014301 72 111 3.0 4.0 0.00 0.00 0.00 59 1008.8
20260505013757 72 160 3.0 3.0 0.00 0.00 0.00 58 1008.8
20260505013254 73 111 1.0 1.0 0.00 0.00 0.00 57 1008.8
20260505012753 72 156 3.0 4.0 0.00 0.00 0.00 58 1008.8
20260505012250 72 224 4.0 4.0 0.00 0.00 0.00 57 1008.7
20260505011745 73 71 4.0 4.0 0.00 0.00 0.00 57 1008.7
20260505011242 73 111 3.0 3.0 0.00 0.00 0.00 57 1008.8
20260505010738 73 240 3.0 4.0 0.00 0.00 0.00 56 1008.8
20260505010235 74 128 2.0 3.0 0.00 0.00 0.00 56 1008.7
20260505005731 73 221 3.0 3.0 0.00 0.00 0.00 56 1008.8
20260505005228 73 131 4.0 6.0 0.00 0.00 0.00 56 1008.7
20260505004725 73 233 4.0 6.0 0.00 0.00 0.00 56 1008.8
20260505004222 73 206 2.0 2.0 0.00 0.00 0.00 56 1008.9
20260505003719 74 115 2.0 3.0 0.00 0.00 0.00 55 1008.7
20260505003217 73 293 5.0 7.0 0.00 0.00 0.00 55 1008.7
20260505002713 74 213 8.0 9.0 0.00 0.00 0.00 55 1008.7
20260505002210 74 271 8.0 10.0 0.00 0.00 0.00 55 1008.6